Main page
METAR-TAF:

METAR-TAF

Airports :

Shuttle Landing Facility

Kennedy Space Center, Florida, United States

latitude: 28-37N, longitude: 080-43W, elevation: 10 ft

Current weather observation

The report was made 14 minutes ago, at 07:56 UTC
Wind 3 mph from the North/Northeast
Temperature 75°F
Humidity 78%
Pressure 29.91 in. Hg
Visibility: 10 miles
Overcast at a height of 6000 ft

METAR: KTTS 240756Z AUTO 02003KT 10SM OVC060 24/20 A2991 RMK AO2 SLP133 T02370204 $

Time: 04:10 (08:10 UTC)


TAF: missing

Weather observations and forecasts of more than 4000 airports (METAR and TAF reports).

The available stations are represented by yellow and red dots on the map.

Hover mouse over dot to see the name of the station.

Then click to see weather observations and forecasts.

To change the map : click on the green buttons with a black cross to zoom in, on the green button with a dash to zoom out, or on the green arrows for adjacent maps.


METAR-TAF: